Weather History for KBXK - March, 2013

Change the Weather History Date:

Tuesday, March 26, 2013

  Actual Average (KGYR) Record (KGYR)
Temperature  
Mean Temperature 68 °F -  
Max Temperature 86 °F 79 °F 89 °F (2003)
Min Temperature 51 °F 51 °F 44 °F (2005)
Cooling Degree Days 4    
Growing Degree Days 18 (Base 50)    
Moisture  
Dew Point 21 °F    
Average Humidity 18    
Maximum Humidity 35    
Minimum Humidity 7    
Precipitation  
Precipitation 0.00 in - - ()
Sea Level Pressure  
Sea Level Pressure 29.86 in    
Wind  
Wind Speed 7 mph (WSW)    
Max Wind Speed 17 mph    
Max Gust Speed 22 mph    
Visibility 10 miles    
Events      
Averages and records for this station are not official NWS values.
T = Trace of Precipitation, MM = Missing Value Source: NWS Daily Summary

Daily Weather History Graph

Daily Weather History Graph

Search for Another Location

Airport or City:

Trip Planner

Search our weather history database for the weather conditions in past years. The results will help you decide how hot, cold, wet, or windy it might be!

Date:

Astronomy

Mar. 26, 2013 Rise Set
Actual Time 6:25 AM MST 6:47 PM MST
Civil Twilight 6:01 AM MST 7:11 PM MST
Nautical Twilight 5:32 AM MST 7:41 PM MST
Astronomical Twilight 5:02 AM MST 8:10 PM MST
Moon 6:27 PM MST (3/26) 5:44 AM MST (3/26)
Length of Visible Light 13h 10m
Length of Day
12h 21m
Full, 100% of the Moon is Illuminated
Mar 26
Full
Mar 27
Full
Apr 2
Last Quarter
Apr 10
New
Apr 18
First Quarter

Hourly Weather History & Observations

Time (MST) Temp. Dew Point Humidity Pressure Visibility Wind Dir Wind Speed Gust Speed Precip Events Conditions
12:15 AM 59.0 °F 19.4 °F 22% 29.90 in 10.0 mi Calm Calm - N/A   Partly Cloudy
12:35 AM 57.2 °F 21.2 °F 25% 29.90 in 10.0 mi NW 4.6 mph - N/A   Scattered Clouds
12:55 AM 55.4 °F 23.0 °F 29% 29.90 in 10.0 mi NW 6.9 mph - N/A   Partly Cloudy
1:15 AM 55.4 °F 23.0 °F 29% 29.90 in 10.0 mi NW 8.1 mph - N/A   Partly Cloudy
1:35 AM 55.4 °F 23.0 °F 29% 29.90 in 10.0 mi NNW 5.8 mph - N/A   Mostly Cloudy
1:55 AM 55.4 °F 23.0 °F 29% 29.90 in 10.0 mi NNE 3.5 mph - N/A   Scattered Clouds
2:15 AM 55.4 °F 23.0 °F 29% 29.90 in 10.0 mi North 3.5 mph - N/A   Scattered Clouds
2:35 AM 53.6 °F 26.6 °F 35% 29.89 in 10.0 mi NNW 6.9 mph - N/A   Partly Cloudy
2:55 AM 55.4 °F 23.0 °F 29% 29.89 in 10.0 mi NNW 8.1 mph - N/A   Mostly Cloudy
3:15 AM 55.4 °F 23.0 °F 29% 29.88 in 10.0 mi NNW 6.9 mph - N/A   Scattered Clouds
3:35 AM 53.6 °F 23.0 °F 30% 29.88 in 10.0 mi NNE 4.6 mph - N/A   Partly Cloudy
3:55 AM 53.6 °F 23.0 °F 30% 29.88 in 10.0 mi North 4.6 mph - N/A   Clear
4:15 AM 51.8 °F 23.0 °F 33% 29.88 in 10.0 mi ENE 3.5 mph - N/A   Partly Cloudy
4:35 AM 51.8 °F 23.0 °F 33% 29.88 in 10.0 mi NE 4.6 mph - N/A   Partly Cloudy
4:55 AM 53.6 °F 23.0 °F 30% 29.88 in 10.0 mi Calm Calm - N/A   Scattered Clouds
5:15 AM 57.2 °F 23.0 °F 27% 29.89 in 10.0 mi North 4.6 mph - N/A   Mostly Cloudy
5:35 AM 53.6 °F 23.0 °F 30% 29.89 in 10.0 mi NNW 8.1 mph - N/A   Overcast
5:55 AM 51.8 °F 23.0 °F 33% 29.90 in 10.0 mi NNW 8.1 mph - N/A   Mostly Cloudy
6:15 AM 51.8 °F 23.0 °F 33% 29.90 in 10.0 mi North 10.4 mph - N/A   Partly Cloudy
6:35 AM 51.8 °F 23.0 °F 33% 29.90 in 9.0 mi North 6.9 mph - N/A   Clear
6:55 AM 53.6 °F 24.8 °F 33% 29.90 in 10.0 mi Calm Calm - N/A   Clear
7:15 AM 51.8 °F 24.8 °F 35% 29.91 in 10.0 mi West 4.6 mph - N/A   Clear
7:35 AM 60.8 °F 26.6 °F 27% 29.91 in 10.0 mi East 8.1 mph - N/A   Clear
7:55 AM 66.2 °F 23.0 °F 19% 29.91 in 10.0 mi East 11.5 mph - N/A   Clear
8:15 AM 68.0 °F 23.0 °F 18% 29.92 in 10.0 mi East 10.4 mph - N/A   Clear
8:35 AM 71.6 °F 21.2 °F 15% 29.93 in 10.0 mi East 16.1 mph 20.7 mph N/A   Clear
8:55 AM 71.6 °F 19.4 °F 14% 29.93 in 10.0 mi East 13.8 mph - N/A   Clear
9:15 AM 71.6 °F 23.0 °F 16% 29.93 in 10.0 mi East 11.5 mph - N/A   Clear
9:35 AM 71.6 °F 21.2 °F 15% 29.93 in 10.0 mi East 15.0 mph - N/A   Clear
9:55 AM 71.6 °F 21.2 °F 15% 29.93 in 10.0 mi East 15.0 mph - N/A   Clear
10:15 AM 73.4 °F 23.0 °F 15% 29.92 in 10.0 mi East 16.1 mph - N/A   Clear
10:35 AM 73.4 °F 23.0 °F 15% 29.92 in 10.0 mi East 16.1 mph - N/A   Clear
10:55 AM 77.0 °F 23.0 °F 13% 29.92 in 10.0 mi East 16.1 mph 20.7 mph N/A   Clear
11:15 AM 77.0 °F 23.0 °F 13% 29.92 in 10.0 mi East 16.1 mph 19.6 mph N/A   Clear
11:55 AM 78.8 °F 24.8 °F 14% 29.90 in 10.0 mi East 16.1 mph 19.6 mph N/A   Clear
12:15 PM 80.6 °F 24.8 °F 13% 29.89 in 10.0 mi East 17.3 mph 21.9 mph N/A   Clear
12:35 PM 80.6 °F 24.8 °F 13% 29.89 in 10.0 mi East 13.8 mph - N/A   Clear
12:55 PM 82.4 °F 24.8 °F 12% 29.88 in 10.0 mi ESE 13.8 mph - N/A   Clear
1:15 PM 82.4 °F 23.0 °F 11% 29.88 in 10.0 mi East 6.9 mph - N/A   Clear
1:55 PM 82.4 °F 21.2 °F 10% 29.86 in 10.0 mi NE 3.5 mph - N/A   Clear
2:15 PM 84.2 °F 21.2 °F 10% 29.85 in 10.0 mi Calm Calm - N/A   Clear
2:35 PM 84.2 °F 21.2 °F 10% 29.84 in 10.0 mi WNW 3.5 mph - N/A   Clear
2:55 PM 84.2 °F 19.4 °F 9% 29.83 in 10.0 mi SSE 5.8 mph - N/A   Clear
3:15 PM 86.0 °F 19.4 °F 9% 29.83 in 10.0 mi SSE 5.8 mph - N/A   Clear
3:35 PM 86.0 °F 23.0 °F 10% 29.82 in 10.0 mi SSE 3.5 mph - N/A   Clear
3:55 PM 86.0 °F 21.2 °F 9% 29.81 in 10.0 mi SW 12.7 mph 17.3 mph N/A   Clear
4:15 PM 86.0 °F 15.8 °F 7% 29.80 in 10.0 mi South 9.2 mph - N/A   Clear
4:35 PM 86.0 °F 19.4 °F 9% 29.80 in 10.0 mi SW 11.5 mph - N/A   Clear
4:55 PM 86.0 °F 17.6 °F 8% 29.79 in 10.0 mi SW 10.4 mph - N/A   Clear
5:15 PM 86.0 °F 17.6 °F 8% 29.78 in 10.0 mi SW 9.2 mph - N/A   Clear
5:35 PM 84.2 °F 21.2 °F 10% 29.78 in 10.0 mi SW 10.4 mph 16.1 mph N/A   Clear
5:55 PM 82.4 °F 17.6 °F 9% 29.78 in 10.0 mi SW 12.7 mph 17.3 mph N/A   Clear
6:15 PM 82.4 °F 17.6 °F 9% 29.78 in 10.0 mi SW 11.5 mph - N/A   Clear
6:35 PM 80.6 °F 17.6 °F 10% 29.78 in 10.0 mi SW 11.5 mph - N/A   Clear
6:55 PM 77.0 °F 17.6 °F 11% 29.78 in 10.0 mi SW 9.2 mph - N/A   Clear
7:15 PM 77.0 °F 17.6 °F 11% 29.79 in 10.0 mi WSW 9.2 mph - N/A   Clear
7:35 PM 75.2 °F 17.6 °F 11% 29.79 in 10.0 mi SW 5.8 mph - N/A   Clear
7:55 PM 75.2 °F 15.8 °F 11% 29.80 in 10.0 mi WSW 4.6 mph - N/A   Partly Cloudy
8:15 PM 73.4 °F 19.4 °F 13% 29.80 in 10.0 mi SW 6.9 mph - N/A   Partly Cloudy
8:35 PM 73.4 °F 17.6 °F 12% 29.81 in 10.0 mi SW 6.9 mph - N/A   Scattered Clouds
8:55 PM 69.8 °F 17.6 °F 14% 29.82 in 10.0 mi West 5.8 mph - N/A   Partly Cloudy
9:15 PM 68.0 °F 19.4 °F 16% 29.82 in 10.0 mi WSW 8.1 mph - N/A   Clear
9:35 PM 68.0 °F 17.6 °F 15% 29.83 in 10.0 mi West 6.9 mph - N/A   Partly Cloudy
9:55 PM 68.0 °F 15.8 °F 13% 29.84 in 10.0 mi West 8.1 mph - N/A   Partly Cloudy
10:15 PM 68.0 °F 15.8 °F 13% 29.84 in 10.0 mi WSW 8.1 mph - N/A   Clear
10:35 PM 68.0 °F 17.6 °F 15% 29.84 in 10.0 mi West 5.8 mph - N/A   Scattered Clouds
10:55 PM 66.2 °F 17.6 °F 15% 29.85 in 10.0 mi WSW 6.9 mph - N/A   Partly Cloudy
11:15 PM 64.4 °F 24.8 °F 22% 29.85 in 10.0 mi SSE 3.5 mph - N/A   Partly Cloudy
11:35 PM 66.2 °F 21.2 °F 18% 29.85 in 10.0 mi SSE 5.8 mph - N/A   Partly Cloudy
11:55 PM 68.0 °F 21.2 °F 17% 29.85 in 10.0 mi SW 5.8 mph - N/A   Clear